Location: Pedimozza
(42.0500°N, 9.3500°E)
Time: 13:56:28
(UTC+00:00)

Landsat 7 - Pass Details

Date: 19 August 2019
Orbit: 701 x 703 km, 98.1° (Epoch: 22 September)

Event Time Altitude Azimuth Distance (km) Brightness Sun altitude
Exits shadow 20:58:32 78° 233° (SW) 723 3.7 -25.6°
Maximum altitude 20:58:40 79° 257° (WSW) 721 3.8 -25.6°
Drops below altitude 10° 21:03:27 10° 345° (NNW) 2,178 7.2 -26.2°
Sets 21:05:44 0° 346° (NNW) 3,100 8.2 -26.5°
